This demonstration page uses our WeatherBlox Daily Observations layout. Learn more.

Left ArrowRight Arrow

40.92945, -100.16068

Hourly Observations for February 5, 2021

Temp ( °F °C ) Dew Point ( °F °C ) Humidity (%) Winds ( mph kmh ) Pressure ( in mb ) Visibility ( mi km ) Precip ( " mm )
12:15 am 00:15 Clear 26 -3.5 20 -6.4 81 81 WSW 7 11 29.97 1015 10 16.0934 N/A
12:35 am 00:35 Clear 26 -3.3 21 -6.3 80 80 W 9 15 29.97 1015 10 16.0934 N/A
12:55 am 00:55 Clear 27 -2.8 21 -6 79 79 W 7 11 29.96 1015 10 16.0934 N/A
1:15 am 01:15 Clear 25 -3.9 20 -6.7 81 81 W 7 11 29.97 1015 10 16.0934 N/A
1:35 am 01:35 Clear 25 -3.8 20 -6.8 80 80 W 8 13 29.96 1015 10 16.0934 N/A
1:55 am 01:55 Partly Cloudy 24 -4.4 19 -7 82 82 W 8 13 29.96 1015 10 16.0934 N/A
2:15 am 02:15 Partly Cloudy 24 -4.5 19 -7.1 82 82 W 9 15 29.97 1015 10 16.0934 N/A
2:35 am 02:35 Clear 24 -4.5 20 -6.8 84 84 WNW 5 7 29.97 1015 10 16.0934 N/A
2:55 am 02:55 Clear 23 -4.9 20 -6.9 86 86 WNW 7 11 29.98 1015 10 16.0934 N/A
3:15 am 03:15 Clear 23 -5 19 -7.2 85 85 NW 7 11 29.98 1015 10 16.0934 N/A
3:35 am 03:35 Clear 22 -5.6 18 -7.8 85 85 W 6 9 29.98 1015 10 16.0934 N/A
3:55 am 03:55 Clear 23 -4.8 19 -7.2 84 84 W 9 15 29.97 1015 10 16.0934 N/A
4:15 am 04:15 Partly Cloudy 25 -4.1 20 -6.8 82 82 W 7 11 29.97 1015 10 16.0934 N/A
4:35 am 04:35 Partly Cloudy 25 -4.1 20 -6.6 83 83 N N/A 29.97 1015 10 16.0934 N/A
4:55 am 04:55 Cloudy 25 -4 21 -6.2 85 85 W 5 7 29.97 1015 10 16.0934 N/A
5:15 am 05:15 Mostly Cloudy 26 -3.5 22 -5.7 85 85 NNW 3 6 29.96 1015 10 16.0934 N/A
5:35 am 05:35 Partly Cloudy 26 -3.4 21 -5.9 83 83 NW 6 9 29.96 1015 10 16.0934 N/A
5:55 am 05:55 Partly Cloudy 26 -3.2 22 -5.7 83 83 WNW 6 9 29.95 1014 10 16.0934 N/A
6:15 am 06:15 Clear 26 -3.3 22 -5.8 83 83 WNW 6 9 29.95 1014 10 16.0934 N/A
6:35 am 06:35 Clear 26 -3.3 22 -5.8 83 83 WNW 5 7 29.95 1014 10 16.0934 N/A
6:55 am 06:55 Clear 24 -4.3 20 -6.6 84 84 W 6 9 29.97 1015 10 16.0934 N/A
7:15 am 07:15 Clear 25 -4 20 -6.5 83 83 WNW 5 7 29.96 1014 10 16.0934 N/A
7:35 am 07:35 Clear 24 -4.3 21 -6.3 86 86 W 5 7 29.97 1015 10 16.0934 N/A
7:55 am 07:55 Sunny 24 -4.5 20 -6.5 86 86 WNW 5 7 29.97 1015 10 16.0934 N/A
8:15 am 08:15 Sunny 22 -5.4 19 -7 89 89 W 7 11 29.98 1015 10 16.0934 N/A
8:35 am 08:35 Sunny 24 -4.4 20 -6.5 85 85 WSW 6 9 29.97 1015 10 16.0934 N/A
8:55 am 08:55 Sunny 27 -2.9 22 -5.7 81 81 WNW 3 6 29.96 1014 10 16.0934 N/A
9:15 am 09:15 Sunny 28 -2.5 22 -5.5 80 80 WNW 5 7 29.96 1015 10 16.0934 N/A
9:35 am 09:35 Sunny 30 -1.2 23 -5 76 76 WNW 8 13 29.95 1014 10 16.0934 N/A
9:55 am 09:55 Sunny 32 0.1 25 -4.1 74 74 WNW 10 17 29.94 1014 10 16.0934 N/A
10:15 am 10:15 Sunny 35 1.5 26 -3.6 69 69 NW 13 20 29.92 1013 10 16.0934 N/A
10:35 am 10:35 Sunny 36 2 25 -3.8 66 66 NW 16 26 29.92 1013 10 16.0934 N/A
10:55 am 10:55 Sunny 36 2.4 26 -3.6 65 65 NW 15 24 29.91 1013 10 16.0934 N/A
11:15 am 11:15 Sunny 37 2.7 26 -3.6 64 64 NW 12 19 29.9 1013 10 16.0934 N/A
11:35 am 11:35 Sunny 38 3.2 24 -4.2 59 59 NW 14 22 29.9 1012 10 16.0934 N/A
11:55 am 11:55 Sunny 38 3.6 26 -3.5 60 60 WNW 15 24 29.89 1012 10 16.0934 N/A
12:15 pm 12:15 Sunny 39 4 25 -3.7 58 58 NW 15 24 29.88 1012 10 16.0934 N/A
12:35 pm 12:35 Mostly Cloudy 40 4.2 25 -3.8 56 56 NW 16 26 29.88 1012 10 16.0934 N/A
12:55 pm 12:55 Cloudy 40 4.7 26 -3.6 55 55 WNW 17 28 29.85 1011 10 16.0934 N/A
1:15 pm 13:15 Mostly Cloudy 39 4.1 25 -3.9 56 56 NW 12 19 29.85 1011 10 16.0934 N/A
1:35 pm 13:35 Partly Cloudy 40 4.7 24 -4.2 53 53 NW 13 20 29.83 1010 10 16.0934 N/A
1:55 pm 13:55 Mostly Cloudy 37 2.7 28 -2 71 71 NE 21 33 29.85 1011 10 16.0934 N/A
2:15 pm 14:15 Partly Cloudy 32 undefined 27 -2.9 81 81 ENE 18 30 29.88 1012 10 16.0934 N/A
2:35 pm 14:35 Sunny 32 undefined 26 -3.2 79 79 ENE 14 22 29.89 1012 10 16.0934 N/A
2:55 pm 14:55 Sunny 32 undefined 26 -3.2 79 79 ENE 14 22 29.89 1012 10 16.0934 N/A
3:15 pm 15:15 Sunny 32 0.2 26 -3.1 79 79 E 10 17 29.89 1012 10 16.0934 N/A
3:35 pm 15:35 Sunny 32 0.2 26 -3.3 78 78 ENE 10 17 29.89 1012 10 16.0934 N/A
3:55 pm 15:55 Sunny 32 0.2 26 -3.5 76 76 E 13 20 29.9 1013 10 16.0934 N/A
4:15 pm 16:15 Sunny 32 undefined 26 -3.6 77 77 E 9 15 29.91 1013 10 16.0934 N/A
4:35 pm 16:35 Sunny 31 -0.3 25 -4 76 76 E 9 15 29.91 1013 10 16.0934 N/A
4:55 pm 16:55 Sunny 31 -0.6 24 -4.2 77 77 E 9 15 29.91 1013 10 16.0934 N/A
5:15 pm 17:15 Sunny 30 -1 24 -4.2 79 79 E 9 15 29.92 1013 10 16.0934 N/A
5:35 pm 17:35 Sunny 30 -1.1 25 -4.1 80 80 E 8 13 29.92 1013 10 16.0934 N/A
5:55 pm 17:55 Sunny 29 -1.8 24 -4.4 83 83 SE 7 11 29.93 1014 10 16.0934 N/A
6:15 pm 18:15 Clear 28 -2.1 23 -4.8 82 82 ESE 8 13 29.94 1014 10 16.0934 N/A
6:35 pm 18:35 Partly Cloudy 28 -2.5 23 -4.9 84 84 ESE 7 11 29.95 1014 10 16.0934 N/A
6:55 pm 18:55 Partly Cloudy 27 -2.7 23 -5 84 84 ESE 7 11 29.95 1014 10 16.0934 N/A
7:15 pm 19:15 Mostly Cloudy 27 -3 23 -5.2 85 85 E 8 13 29.97 1015 10 16.0934 N/A
7:35 pm 19:35 Cloudy 27 -3 22 -5.4 84 84 ESE 9 15 29.97 1015 10 16.0934 N/A
7:55 pm 19:55 Cloudy 27 -3 22 -5.4 84 84 ESE 7 11 29.98 1015 10 16.0934 N/A
8:15 pm 20:15 Cloudy 26 -3.1 22 -5.4 84 84 SE 8 13 29.98 1015 10 16.0934 N/A
8:35 pm 20:35 Cloudy 26 -3.2 22 -5.7 83 83 ESE 8 13 29.99 1016 10 16.0934 N/A
8:55 pm 20:55 Cloudy 26 -3.3 22 -5.8 83 83 ESE 9 15 29.98 1015 10 16.0934 N/A
9:15 pm 21:15 Cloudy 26 -3.3 21 -6 82 82 E 10 17 29.98 1015 10 16.0934 N/A
9:35 pm 21:35 Cloudy 26 -3.4 21 -6 82 82 E 12 19 29.98 1015 10 16.0934 N/A
9:55 pm 21:55 Cloudy 26 -3.5 21 -6.1 82 82 E 9 15 29.98 1015 10 16.0934 N/A
10:15 pm 22:15 Cloudy with Light Snow 26 -3.5 21 -6.2 82 82 E 8 13 29.98 1015 7 11.26538 N/A
10:35 pm 22:35 Cloudy with Light Snow 25 -3.7 21 -6.1 84 84 E 9 15 29.99 1016 3 4.82802 N/A
10:55 pm 22:55 Cloudy with Light Snow 25 -4 21 -6.3 84 84 ESE 9 15 30 1016 2 3.21868 N/A
11:15 pm 23:15 Cloudy with Light Snow 24 -4.2 21 -6 87 87 ESE 9 15 30.01 1016 1.5 2.41401 N/A
11:35 pm 23:35 Cloudy with Snow 24 -4.5 22 -5.8 91 91 ESE 9 15 30.01 1016 1 1.60934 N/A
11:55 pm 23:55 Cloudy with Light Snow 24 -4.5 22 -5.7 91 91 ESE 9 15 30 1016 1.25 2.011675 N/A

Powered by AerisWeather